Location: Gollag?dem
(17.0207°N, 80.7261°E)
Time: 06:36:54
(UTC+00:00)

Hubble Space Telescope - Pass Details

Date: 03 August 2024
Orbit: 506 x 509 km, 28.5° (Epoch: 10 September)

Event Time Altitude Azimuth Distance (km) Brightness Sun altitude
Exits shadow 23:28:42 - 193° (SSW) 2,244 3.6 -11.9°
Reaches altitude 10° 23:31:23 10° 163° (SSE) 1,722 3.3 -11.3°
Maximum altitude 23:32:23 11° 149° (SSE) 1,674 3.4 -11.0°
Drops below altitude 10° 23:33:22 10° 134° (SE) 1,723 3.7 -10.8°
Sets 23:37:18 0° 96° (E) 2,611 5.5 -10.0°
